Regional Weather Roundup
Issued by NWS

Home | Current Version | Previous Version | Graphics & Text | Print | Product List | Glossary Off
Versions: 1 2 3 4 5 6 7 8 9 10 11 12 13 14 15 16 17 18 19 20 21 22 23 24 25 26 27 28 29 30 31 32 33 34 35 36 37 38 39 40 41 42 43 44 45 46 47 48 49 50

000
ASUS43 KDMX 220907
RWRIA

WEATHER ROUNDUP FOR IOWA
NATIONAL WEATHER SERVICE DES MOINES IA
400 AM CDT TUE JUL 22 2014

NOTE: "FAIR" INDICATES FEW OR NO CLOUDS BELOW 12,000 FEET WITH NO
SIGNIFICANT WEATHER AND/OR OBSTRUCTIONS TO VISIBILITY.

* - THESE STATIONS ARE NOT NWS STATIONS...THUS NOT UNDER NWS
QUALITY CONTROL.  THEY ALSO DO NOT REPORT WEATHER SUCH
AS PRECIPITATION OR FOG.

IAZ001>003-012>014-020>022-031>034-043>046-221000-
   NORTHWEST IOWA

CITY           SKY/WX    TMP DP  RH WIND       PRES   REMARKS
CARROLL *      CLEAR     79  73  83 W5        29.88R HX  82
CHEROKEE *     PTCLDY    77  75  94 CALM      29.86R
DENISON *      CLEAR     79  75  89 SW3       29.87R HX  82
LE MARS *      CLEAR     75  75 100 CALM      29.86R
ORANGE CITY *  CLEAR     73  72  94 SW3       29.87R FOG
SHELDON *      CLEAR     73  73 100 NW5       29.86R FOG
SIOUX CITY     CLEAR     79  74  84 N6        29.85S HX  82
SPENCER        PTCLDY    76  73  91 CALM      29.86R
STORM LAKE *   CLEAR     75  75 100 SW7       29.88S
$$

IAZ055>058-069>071-079>083-090>094-221000-
   SOUTHWEST IOWA

CITY           SKY/WX    TMP DP  RH WIND       PRES   REMARKS
ATLANTIC *     MOCLDY    77  73  88 SW9       29.91R
AUDUBON *      CLEAR     81  75  83 S6        29.91S HX  86
CLARINDA *     CLEAR     77  75  94 S10       29.94F
COUNCIL BLFS *   N/A     82  75  78 SW6       29.90R HX  89
CRESTON *      PTCLDY    77  75  94 S13G21    29.94S
HARLAN  *      CLEAR     79  75  89 S5        29.93S HX  82
LAMONI         MOCLDY    77  74  90 S12       29.96S
RED OAK *      MOCLDY    77  73  88 CALM      29.91S
SHENANDOAH *     N/A     77  73  88 S13       29.92S
$$

IAZ047>049-059>061-072>074-084-221000-
   CENTRAL IOWA

CITY           SKY/WX    TMP DP  RH WIND       PRES   REMARKS
AMES           CLOUDY    79  74  84 S8        29.89S HX  82
ANKENY *       CLEAR     81  75  83 S9        29.89S HX  86
CHARITON *     CLOUDY    77  73  88 S10       29.95R
DES MOINES     CLOUDY    81  74  79 S13       29.90S HX  86
GRINNELL*      MOCLDY    75  70  83 S12       29.94S
KNOXVILLE *    MOCLDY    79  73  83 S12       29.92F HX  82
MARSHALLTOWN   CLOUDY    77  73  87 S10       29.90F
PELLA *        MOCLDY    79  72  78 S7        29.94S HX  82
PERRY *          N/A     79  73  83 S8        29.88F HX  82
$$

IAZ004>006-015-016-023>025-035-036-221000-
   NORTH CENTRAL IOWA

CITY           SKY/WX    TMP DP  RH WIND       PRES   REMARKS
ALGONA *       CLEAR     77  75  94 S6        29.86S
CLARION *      CLEAR     77  75  94 S8        29.87S
ESTHERVILLE    CLEAR     74  73  97 S6        29.85S FOG
FORT DODGE *   PTCLDY    77  73  88 S9        29.87S
MASON CITY     PTCLDY    76  75  97 S8        29.89S
FOREST CITY *  CLEAR     75  75 100 SE3       29.87S
IOWA FALLS *     N/A     77  73  88 S10       29.90S
$$

IAZ007>011-017>019-026>030-037>042-050>054-066-221000-
   NORTHEAST IOWA

CITY           SKY/WX    TMP DP  RH WIND       PRES   REMARKS
CEDAR RAPIDS   PTCLDY    74  67  78 S12       29.95F
CHARLES CITY * CLOUDY    77  73  88 S14       29.90F
DECORAH *      MOCLDY    75  70  83 S13       29.89F
DUBUQUE        MOCLDY    72  68  87 S14       29.98F
MONTICELLO *   CLEAR     73  68  83 S8G14     29.97F
OELWEIN *      MOCLDY    75  70  83 S17G24    29.94F
WATERLOO       CLOUDY    76  70  82 S10       29.89F
$$

IAZ064-065-067-068-078-221000-
   EAST CENTRAL IOWA

CITY           SKY/WX    TMP DP  RH WIND       PRES   REMARKS
DAVENPORT      CLEAR     74  66  76 S14       30.00F
IOWA CITY      PTCLDY    74  68  81 S10       29.98F
MT. PLEASANT * MOCLDY    73  66  78 S8        30.00S
MUSCATINE *    PTCLDY    73  68  83 S8        29.99F
QUAD CITIES    CLEAR     74  66  76 S9        30.00S
$$

IAZ062-063-075>077-085>089-095>099-221000-
   SOUTHEAST IOWA

CITY           SKY/WX    TMP DP  RH WIND       PRES   REMARKS
BURLINGTON     CLEAR     73  68  84 S10       30.01S
FAIRFIELD *    CLEAR     75  66  73 S10       29.99S
FORT MADISON * CLEAR     73  70  88 S7        30.02S
KEOKUK *       CLEAR     73  68  83 S9        30.01S
OSKALOOSA *      N/A     73  70  88 S13       29.96F
CENTERVILLE *  CLEAR     75  72  88 S7        30.00S
OTTUMWA        CLEAR     74  68  81 S10       29.97S
WASHINGTON *   CLEAR     73  68  83 S10       29.99S
$$

ABBREVIATIONS USED IN REMARKS
   TC - TEMPERATURES IN CELSIUS
  WCI - WIND CHILL INDEX
   HX - HEAT INDEX
  VSB - VISIBILITY
$$



USA.gov is the U.S. government's official web portal to all federal, state and local government web resources and services.